STARLINK-32312, 61711

Orbit data source: Space-Track

STARLINK-32312, 61711 is a payload satellite owned by SpaceX/Seattle (US) in LEO that was launched on Wed, 30 Oct 2024 UTC via an FALCON 9 launch vehicle from the Air Force Eastern Test Range (AFETR). Payload-class satellites include a variety of spacecraft equipped with specific instruments for various scientific and technological missions. These include communications satellites like Starlink; space stations such as the ISS; scientific satellites like the Hubble; Earth observation satellites from companies like Planet Labs, Umbra, and HawkEye 360; GPS; miniature CubeSats for education and research; and military/defense satellites.

Loading next visibility...
Identifier
61711, 2024-196E
Orbit
LEO
Country
Flag of USUS
Related business
Manufacturer
SpaceX/Seattle
Mission
Operational Commercial Communications
Bus & Motor
STARLINK V2M, Unknown motor
Mass
730 kg wet, ~700 kg dry
Launch date (UTC)
2024-10-30 (1 year ago)
Launch vehicle
FALCON 9
Launch site
Air Force Eastern Test Range (AFETR)
Object type
Payload
Rocket body
Debris
Shape & HBR
Box + 2 Pan, 17.7 m
Radar Cross Section
33.884 m², Large (>1 m²)

Expand to show TLE details & history
Last TLE update: 7 hours ago

TLE from 7 hours ago
0 STARLINK-32312
1 61711U 24196E   25311.24661638 -.00000273  00000-0  29018-5 0  9994
2 61711  53.1613 309.8164 0001282 119.6139 240.4990 15.30186458 58418
Epoch: 2025-11-07T05:55Z
TLE epoch observation values (Epoch: 2025-11-07T05:55:07.655Z)
Latitude
0.00002°
Longitude
174.34119°
Altitude
476.588 km
Speed
7.628 km/s
True Right ascension
20h 39m 15s
True Declination
0° 00' 00"
Sunlit
Object was in daylight at epoch
Visualization orbit readout
Latitude
Unknown
Longitude
Unknown
Altitude
Unknown
Speed
Unknown
Apparent Right ascension
Unknown
Apparent Declination
Unknown
Sunlit
N/A
Visualization observer readout
Local Sidereal Time
09:13:57
Azimuth
Unknown
Elevation
Unknown
Doppler factor
Unknown
Orbital elements
Apogee altitude
476.39 km
Perigee altitude
474.633 km
Semi-major axis
6,853.649 km
Eccentricity
0.00013
Inclination
53.1613°
RAAN
309.8164°
Arg. of periapsis
119.6139°
True anomaly
240.48622°
Mean anomaly
240.499°
Eccentric anomaly
240.49261°
Mean motion
3.82526 °/min
Orbital period
94.11 mins
BSTAR
0.0000029018
Loading maneuver chart data...
Computing Atmospheric mass density...
Loading historical data...
Loading historical data...
Loading historical data...
Loading historical data...
Loading historical data...
Loading historical data...
Loading historical data...

Documentation

Showing up to 5 results
|